Location: Baia Mare
(47.6567°N, 23.5850°E)
Time: 10:44:42

ISS - Pass Details

Date: 05 March 2018
Orbit: 403 x 406 km, 51.6° (Epoch: 21 March)

Event Time Altitude Azimuth Distance (km) Brightness Sun altitude
Exits shadow 06:07:09 14° 269° (W) 1,239 -2.1 -9.6°
Maximum altitude 06:09:48 53° 345° (NNW) 507 -3.4 -9.1°
Drops below altitude 10° 06:13:02 10° 64° (ENE) 1,466 0.2 -8.6°
Sets 06:15:09 0° 69° (ENE) 2,327 1.5 -8.2°
